Theta_e
306 307 306 306 306 305 306 307 305 305 305 304 304 304 303 302 302 302 303 303 303 303 303 303 302 304 305 306 307 314 316 316 318 318 317 319 320 321 322 321 319 319 319 318 318 320 320
308 307 306 306 305 304 306 305 304 304 304 303 304 304 302 302 302 302 302 302 302 302 302 302 302 303 304 306 308 312 315 313 316 318 317 319 319 320 319 320 320 318 318 318 318 319 319
305 306 305 304 305 304 305 305 304 303 303 304 304 303 303 302 302 302 302 302 301 301 301 302 302 303 304 305 309 311 312 314 317 317 316 319 319 319 319 319 319 318 319 318 319 318 318
306 304 305 305 305 304 305 304 302 304 304 304 304 304 303 303 301 302 302 301 300 301 303 301 303 303 303 304 307 311 312 313 315 316 317 320 320 318 318 318 318 318 318 320 317 318 318
306 304 305 304 304 304 304 304 304 304 304 304 304 305 305 304 301 301 302 300 301 302 302 303 303 303 303 306 306 309 312 314 315 317 318 318 319 318 317 319 319 318 317 317 318 318 317
303 306 305 304 304 304 303 304 303 304 304 304 303 304 303 304 301 300 301 302 302 301 302 303 302 303 303 308 307 312 313 314 318 317 318 319 319 320 319 319 318 319 317 317 317 317 318
303 304 305 304 302 302 302 303 304 303 304 305 303 304 303 303 303 300 302 301 302 303 303 302 303 304 306 309 310 313 313 314 318 317 318 317 319 322 320 317 316 317 317 316 316 315 317
301 302 304 303 302 301 303 303 303 303 304 305 302 303 304 304 303 301 301 302 301 301 302 301 302 303 303 305 311 313 312 318 316 318 317 317 320 318 318 318 317 317 316 317 317 314 316
299 300 302 302 301 301 300 302 302 303 304 304 302 302 304 304 301 300 302 302 301 301 302 303 304 304 304 307 312 310 312 315 317 316 317 318 319 318 318 318 318 318 317 318 318 314 312
299 300 302 302 301 301 299 301 302 302 303 304 302 303 302 303 302 301 301 301 301 300 304 303 305 304 306 310 312 312 312 313 316 312 313 312 317 318 318 318 317 319 318 317 316 318 319
299 299 302 302 302 299 297 299 301 301 302 301 301 302 301 302 302 302 301 300 300 301 306 304 306 306 310 312 311 311 312 315 314 313 313 314 316 320 319 319 318 320 316 315 314 316 316
298 299 302 302 301 299 296 297 299 302 302 301 301 302 301 301 301 301 301 300 301 306 308 308 307 308 311 311 313 312 314 313 313 314 314 314 314 315 314 313 316 311 313 311 312 315 320
297 299 301 302 299 297 296 294 293 300 303 301 301 301 302 302 302 302 302 302 308 309 305 309 310 309 312 314 313 314 314 315 316 318 317 313 312 312 312 311 311 314 317 320 319 321 321
297 299 301 302 300 296 296 293 293 295 302 304 301 301 302 303 302 302 302 305 311 308 309 308 309 312 314 313 314 313 310 315 313 314 317 318 317 312 311 314 315 316 317 320 318 316 313
297 299 300 301 300 297 294 293 292 293 299 305 303 302 303 304 304 302 304 311 308 306 306 309 312 313 314 313 314 313 313 315 312 312 316 317 315 311 310 310 314 313 317 309 312 308 313
297 299 298 299 300 299 297 293 292 292 297 305 304 302 305 306 304 303 308 310 308 305 307 310 312 312 314 312 314 314 314 312 311 310 309 312 316 311 309 310 310 313 310 315 314 316 315
297 299 297 297 301 300 299 294 293 292 296 304 304 304 307 307 305 309 310 311 308 308 308 311 311 312 313 313 313 313 312 311 311 310 310 311 314 313 312 313 314 311 313 310 311 310 311
296 298 298 298 300 300 298 296 293 292 295 304 304 311 307 307 309 308 311 308 307 310 310 310 310 311 312 312 313 312 312 312 309 310 312 310 313 315 313 308 308 310 312 310 315 313 310
297 298 299 299 300 300 297 297 293 292 297 304 304 304 307 308 312 310 309 310 310 311 310 309 310 310 309 311 313 311 310 309 309 310 311 310 312 313 312 310 309 311 310 308 308 309 312
296 297 299 298 299 300 297 296 293 292 296 304 304 310 307 308 308 311 311 312 312 310 309 308 309 309 310 310 310 311 311 310 309 311 308 308 309 312 313 313 311 312 310 308 312 315 311
296 296 299 299 298 299 298 297 295 292 297 303 303 304 303 309 310 309 310 311 311 311 310 309 310 310 310 311 311 311 311 310 310 309 308 310 313 309 308 309 309 310 311 309 309 311 315
295 296 299 299 298 298 298 298 297 293 294 302 302 303 303 304 305 308 309 311 312 311 311 311 311 311 310 311 310 311 311 311 311 310 310 308 311 309 310 308 308 310 310 310 309 310 309
295 297 298 298 296 297 298 297 297 296 293 298 300 301 302 305 306 308 310 310 311 311 311 310 310 311 311 310 309 308 308 309 310 310 310 310 310 311 312 308 309 312 310 310 310 309 310
296 299 298 298 297 296 297 297 297 296 295 294 296 299 302 306 306 307 307 307 311 310 312 311 311 311 307 306 307 308 309 309 309 308 308 309 310 310 312 309 314 310 308 309 310 309 309
296 298 298 297 297 298 296 298 296 296 295 294 295 298 301 304 304 306 308 308 309 310 311 311 310 309 309 309 311 311 312 311 311 311 309 309 311 311 313 311 310 311 309 309 310 312 309
297 298 298 297 297 298 297 296 297 296 295 294 294 295 298 301 304 304 306 308 310 311 311 310 310 310 310 310 311 311 311 312 312 312 310 308 309 311 310 311 312 313 312 311 309 319 313
298 298 297 297 297 297 296 295 297 297 295 295 295 295 295 298 300 303 306 308 306 307 311 310 310 310 309 311 312 312 312 311 312 312 312 312 311 312 311 310 310 309 307 312 320 317 312
300 299 299 297 296 297 295 297 298 297 294 295 295 295 294 296 297 298 299 304 308 307 311 309 310 310 310 312 312 312 312 312 311 311 311 311 312 312 311 311 311 307 312 315 314 312 311
299 298 297 296 296 296 296 296 298 296 295 294 296 296 294 293 295 297 300 301 303 307 308 308 310 309 310 312 310 310 311 312 312 313 309 311 310 311 311 310 308 308 310 309 310 310 310
Wind_Speed
21 20 22 23 25 24 24 26 29 26 27 25 24 23 21 20 19 16 15 14 14 13 12 11 11 13 9 9 21 7 18 14 24 26 29 27 31 25 18 19 15 15 5 10 8 8 7
21 21 22 22 25 24 23 28 30 26 29 27 25 24 21 20 19 17 15 14 13 11 9 8 9 9 9 14 13 22 11 8 17 31 30 28 26 23 17 14 15 14 8 12 13 8 5
21 22 23 24 26 24 23 28 28 28 26 28 27 25 23 20 18 16 13 13 11 9 8 8 10 9 12 21 10 13 23 9 11 31 32 28 18 24 11 9 14 4 13 13 9 11 9
20 23 23 25 26 28 27 28 24 26 28 28 27 26 24 23 18 14 13 12 9 9 12 8 9 9 10 10 20 8 25 15 13 27 27 24 21 23 10 7 13 14 7 10 10 18 6
21 22 23 25 27 29 29 25 29 27 27 30 31 30 25 21 16 16 11 9 8 13 12 8 7 7 8 7 21 12 17 16 15 26 26 22 25 22 9 14 10 14 10 18 5 10 13
21 22 23 25 27 28 28 27 26 29 29 31 31 28 21 16 12 10 6 8 9 6 3 6 6 5 11 9 18 11 17 14 17 27 19 20 15 11 14 15 15 19 15 13 14 7 9
22 22 23 25 27 28 26 27 29 27 29 31 33 27 21 12 7 6 4 4 1 1 3 4 3 5 5 2 14 10 17 15 19 26 10 25 6 18 24 19 3 10 16 9 8 5 6
22 23 23 25 26 27 26 27 26 27 29 32 31 29 19 3 2 2 4 2 2 2 3 4 9 11 9 9 6 15 12 10 18 21 11 8 13 15 16 13 7 14 14 10 6 5 5
22 23 22 24 26 27 25 26 26 26 28 31 29 26 21 8 4 3 5 5 4 3 2 2 0 4 5 2 3 13 6 3 20 14 17 5 7 15 18 16 13 9 12 11 4 6 2
22 22 22 23 26 28 28 26 26 25 26 28 31 23 16 7 5 7 8 9 1 2 1 5 2 3 6 8 4 11 11 5 4 9 6 1 3 18 19 18 16 12 5 8 7 5 3
21 22 23 24 26 28 30 26 24 22 22 24 28 21 19 12 5 6 4 7 2 3 4 2 2 4 5 2 17 7 1 4 10 11 6 4 6 15 20 20 15 6 9 8 5 3 2
22 22 22 25 26 28 30 29 24 21 19 15 19 18 13 14 13 9 6 5 2 3 7 6 4 5 3 4 6 8 6 9 14 9 14 7 6 4 2 7 6 15 10 8 4 1 3
21 22 21 22 26 27 28 30 26 23 19 14 11 13 12 11 7 8 8 7 1 6 3 6 5 4 7 4 11 8 4 4 3 5 4 5 4 6 5 9 3 8 12 4 3 4 2
19 20 21 23 26 29 28 30 29 22 21 16 11 9 10 11 8 8 11 2 10 4 4 2 2 4 4 6 7 8 3 5 8 8 4 2 4 2 3 2 9 10 3 2 4 4 3
17 20 22 22 24 28 28 30 30 24 22 17 9 6 8 11 12 8 3 6 3 2 2 1 3 4 3 7 5 4 2 4 3 3 3 4 4 2 3 4 6 4 4 2 4 2 1
16 18 21 22 24 27 30 30 31 29 21 18 8 1 10 12 8 6 1 5 1 3 2 4 2 2 4 5 3 2 1 2 3 0 2 3 6 3 4 1 11 1 8 2 0 4 4
15 18 20 21 23 27 29 31 30 31 23 17 5 1 12 11 8 6 3 4 1 3 4 2 2 3 6 4 4 2 2 3 2 2 3 5 3 3 2 1 7 4 3 2 2 1 2
15 18 20 21 23 25 27 27 28 29 27 16 5 1 10 7 3 3 2 2 2 2 4 2 2 6 5 3 3 2 3 1 2 3 3 1 4 4 2 2 2 1 2 4 2 4 0
14 16 18 22 22 26 28 27 26 26 23 18 9 3 5 5 3 3 1 1 3 3 2 1 2 1 1 3 3 3 3 3 1 1 5 6 4 5 5 3 1 4 4 2 5 2 5
14 15 18 20 19 23 26 28 24 24 19 13 5 1 3 5 3 1 2 2 3 2 3 2 2 2 4 3 3 4 4 3 0 2 7 3 2 1 2 3 3 4 8 9 4 3 4
13 14 14 19 19 21 25 26 24 22 16 8 5 2 2 2 3 2 1 1 1 2 3 5 2 1 3 3 3 4 2 4 3 2 3 1 3 2 1 3 2 1 5 11 7 4 5
13 13 14 19 21 16 24 27 29 23 16 6 4 4 6 4 6 4 3 2 2 1 2 0 2 1 1 2 1 7 6 4 3 3 2 2 3 2 1 1 4 5 8 10 14 14 13
11 12 14 18 19 15 19 24 26 28 21 8 6 3 3 4 3 3 1 1 3 3 2 1 5 4 3 1 1 1 1 5 5 7 5 3 5 2 1 0 3 7 15 16 9 9 13
10 10 16 16 17 16 16 19 21 24 23 13 8 4 3 2 3 2 4 4 2 3 1 2 1 1 5 16 13 14 14 12 8 6 3 6 5 1 0 2 4 3 2 5 17 10 13
9 11 15 18 17 14 15 15 17 18 20 15 8 3 3 3 6 7 4 4 1 3 3 2 2 7 11 2 4 5 2 1 5 5 2 2 4 2 2 3 5 2 4 6 8 7 16
9 11 14 17 18 13 13 15 16 14 14 14 10 6 3 4 3 3 4 3 2 2 3 3 6 8 3 1 1 3 4 3 4 3 4 4 3 2 2 3 3 3 3 4 4 3 4
9 11 15 17 18 14 16 12 13 13 13 14 12 9 5 5 8 4 4 3 2 1 2 4 6 3 1 1 1 2 3 2 5 6 5 4 2 7 6 4 5 5 4 1 2 3 1
10 13 16 18 19 15 14 13 13 15 14 13 14 10 9 8 22 17 15 9 5 3 3 5 5 3 2 4 3 2 2 4 3 2 4 8 5 4 4 4 6 3 4 3 4 5 6
11 15 18 17 19 14 14 14 15 19 15 14 16 14 11 13 11 12 15 21 23 10 3 6 1 4 4 3 2 2 2 3 3 3 2 5 4 2 5 3 1 2 2 5 2 1 3
Wind_Direction
351 349 342 344 338 339 331 335 332 330 330 325 322 319 319 315 313 306 305 303 297 292 280 264 265 247 249 242 229 216 155 170 203 196 195 190 191 197 195 198 193 215 197 201 204 171 156
348 348 345 339 335 337 334 336 334 334 329 326 322 322 318 312 308 303 301 306 302 294 285 275 261 241 236 247 230 231 199 139 197 189 195 191 197 189 205 197 198 201 198 207 214 195 183
351 347 349 341 344 345 344 337 336 333 331 328 328 324 318 313 301 298 300 300 298 295 293 269 252 244 234 236 231 233 223 231 189 189 191 192 188 185 172 183 201 143 205 228 202 211 227
354 349 349 347 349 349 345 338 345 337 338 330 325 320 319 311 303 296 295 292 290 287 284 271 254 237 250 257 217 178 197 237 209 194 191 188 186 184 182 171 166 190 197 198 213 210 204
347 350 349 348 353 347 340 343 344 344 335 335 333 325 316 306 306 302 281 287 293 292 274 252 244 218 257 248 209 225 192 208 187 183 188 182 173 182 156 164 159 186 203 213 179 207 207
352 352 350 352 348 348 344 343 345 344 343 340 339 334 328 308 284 304 285 314 301 308 258 203 214 212 241 216 191 205 180 169 168 170 182 193 188 179 175 180 194 189 196 205 210 171 206
353 354 351 354 352 346 349 349 349 348 347 346 342 340 329 305 283 277 298 345 317 209 187 220 214 247 67 172 200 176 166 173 157 166 177 192 211 186 187 194 313 170 190 189 206 142 208
354 353 352 349 351 352 352 347 348 351 353 351 355 358 351 341 195 238 333 7 262 291 282 272 263 266 275 295 175 172 172 170 173 176 157 166 209 204 182 179 161 175 179 188 123 156 222
350 354 357 352 349 352 354 349 348 355 357 359 3 9 25 73 86 57 27 335 264 226 275 354 88 290 255 291 147 170 160 133 154 163 183 222 180 183 179 181 184 184 187 168 157 149 120
348 352 357 352 353 353 357 354 353 356 360 3 9 6 19 35 54 42 35 14 94 200 220 41 42 256 242 225 118 160 152 88 95 121 145 317 208 175 183 182 176 171 157 142 133 183 216
345 349 356 352 351 357 358 356 357 360 4 5 11 16 36 62 77 54 73 93 126 310 77 38 234 295 347 95 130 173 132 351 95 129 182 201 131 187 184 187 188 122 142 117 111 110 304
342 346 355 357 352 355 358 357 353 355 357 8 16 21 32 61 69 78 91 124 251 265 37 353 55 11 10 139 95 146 100 64 111 97 93 57 99 46 83 41 139 135 114 77 72 99 233
340 344 357 351 354 357 359 358 355 347 349 351 4 16 9 23 53 45 345 317 261 47 320 6 7 344 100 82 109 107 35 92 115 124 65 89 56 90 103 78 16 141 151 135 177 197 245
340 343 352 352 354 358 358 358 357 347 342 346 337 346 1 358 348 336 337 263 52 337 10 343 315 97 63 34 86 76 329 100 62 73 77 85 112 35 297 127 151 154 227 216 181 189 139
338 341 350 352 352 360 1 357 358 354 341 347 350 348 349 348 342 334 320 49 51 295 256 5 87 62 82 62 81 86 37 77 100 165 129 138 84 78 96 130 145 171 211 42 105 78 246
331 336 347 352 347 352 360 358 358 356 347 344 359 13 6 0 9 4 349 93 52 240 291 246 86 264 114 108 93 103 121 76 105 359 261 129 110 49 155 149 52 212 131 150 336 179 226
328 332 345 351 349 351 354 354 356 356 354 345 12 20 1 1 43 38 37 61 315 257 252 326 99 114 107 126 146 95 68 114 139 90 119 122 90 128 174 188 168 149 185 63 94 321 268
328 330 342 348 348 354 352 354 354 357 353 354 13 349 357 10 55 51 48 326 311 280 201 254 66 87 141 118 120 111 115 76 132 160 100 53 101 136 92 39 319 290 199 198 218 169 15
323 328 341 348 349 345 355 354 354 357 356 352 341 307 11 38 93 81 59 280 273 318 2 34 115 34 150 124 120 114 108 8 120 93 150 168 137 140 159 184 193 219 197 147 94 71 196
321 327 342 348 350 343 354 352 355 358 357 348 347 322 8 58 68 55 117 29 344 344 323 8 102 127 128 100 42 140 126 66 74 88 95 100 101 325 133 92 115 190 190 188 169 181 159
318 323 338 339 347 339 347 353 355 1 1 355 16 37 2 334 61 8 237 113 347 340 358 354 119 133 147 133 116 133 126 120 73 94 67 67 104 77 63 82 124 229 203 195 206 188 209
316 323 335 339 343 348 346 351 356 360 8 32 24 4 340 291 308 269 217 158 168 160 305 49 194 69 350 170 229 182 156 177 172 162 105 30 108 95 100 173 220 250 232 216 222 229 247
313 329 336 342 345 352 346 350 354 358 11 28 27 12 338 305 313 260 53 65 140 172 104 350 139 129 104 70 4 64 133 136 148 171 155 127 140 156 171 342 270 262 230 208 205 211 223
315 331 341 342 348 337 345 352 350 350 3 7 1 8 329 300 312 340 343 335 300 206 165 69 111 152 123 112 100 89 85 87 93 71 124 147 115 123 174 214 234 76 121 224 214 212 217
316 334 336 337 339 338 337 339 342 349 353 356 356 7 330 297 329 301 330 266 208 120 106 87 34 133 150 149 119 122 84 136 74 52 81 185 145 126 251 239 311 181 174 153 176 216 220
325 338 333 327 334 332 325 326 332 337 340 338 350 314 272 319 243 325 306 292 234 160 135 101 107 140 143 60 181 174 182 146 160 126 57 90 102 224 172 271 248 58 83 201 229 145 170
315 320 328 329 330 328 324 314 325 321 330 310 310 325 304 273 269 278 240 283 253 210 127 143 151 157 142 140 183 185 163 169 171 179 169 167 170 219 227 259 274 246 251 121 204 105 144
298 315 324 323 321 322 320 322 334 325 327 297 299 282 314 262 265 265 275 277 310 240 186 149 134 165 149 195 207 167 204 182 179 147 178 192 190 191 202 221 254 154 141 197 345 304 280
300 314 324 318 317 317 310 317 325 327 313 290 293 292 291 266 260 256 256 264 249 243 317 190 328 147 152 135 181 146 177 191 207 201 184 209 216 210 223 228 66 184 76 326 11 56 6